TimeEDT,TemperatureF,Dew PointF,Humidity,Sea Level PressureIn,VisibilityMPH,Wind Direction,Wind SpeedMPH,Gust SpeedMPH,PrecipitationIn,Events,Conditions,WindDirDegrees,DateUTC
12:15 AM,48.2,44.6,87,30.19,10.0,South,3.5,-,N/A,,Clear,180,2013-05-28 04:15:00
12:35 AM,46.4,42.8,87,30.19,10.0,South,3.5,-,N/A,,Clear,190,2013-05-28 04:35:00
12:55 AM,48.2,44.6,87,30.19,10.0,Calm,Calm,-,N/A,,Clear,0,2013-05-28 04:55:00
1:15 AM,48.2,46.4,93,30.19,10.0,South,3.5,-,N/A,,Clear,190,2013-05-28 05:15:00
1:35 AM,48.2,46.4,93,30.20,10.0,Calm,Calm,-,N/A,,Clear,0,2013-05-28 05:35:00
1:55 AM,46.4,44.6,93,30.20,10.0,Calm,Calm,-,N/A,,Clear,0,2013-05-28 05:55:00
2:15 AM,44.6,42.8,93,30.21,10.0,SW,3.5,-,N/A,,Clear,220,2013-05-28 06:15:00
2:35 AM,46.4,44.6,93,30.21,10.0,SW,4.6,-,N/A,,Clear,220,2013-05-28 06:35:00
2:55 AM,46.4,42.8,87,30.20,10.0,Calm,Calm,-,N/A,,Clear,0,2013-05-28 06:55:00
3:15 AM,44.6,42.8,93,30.21,10.0,Calm,Calm,-,N/A,,Clear,0,2013-05-28 07:15:00
3:35 AM,42.8,42.8,100,30.21,10.0,Calm,Calm,-,N/A,,Clear,0,2013-05-28 07:35:00
3:55 AM,42.8,41.0,93,30.21,10.0,Calm,Calm,-,N/A,,Clear,0,2013-05-28 07:55:00
4:15 AM,42.8,39.2,87,30.21,10.0,Calm,Calm,-,N/A,,Clear,0,2013-05-28 08:15:00
4:35 AM,41.0,37.4,87,30.21,10.0,Calm,Calm,-,N/A,,Clear,0,2013-05-28 08:35:00
4:55 AM,39.2,37.4,93,30.21,10.0,Calm,Calm,-,N/A,,Clear,0,2013-05-28 08:55:00
5:15 AM,39.2,37.4,93,30.21,10.0,East,4.6,-,N/A,,Clear,80,2013-05-28 09:15:00
5:35 AM,39.2,37.4,93,30.21,10.0,ENE,5.8,-,N/A,,Clear,70,2013-05-28 09:35:00
5:55 AM,46.4,44.6,93,30.22,10.0,ENE,4.6,-,N/A,,Clear,70,2013-05-28 09:55:00
6:15 AM,50.0,48.2,94,30.23,10.0,ENE,5.8,-,N/A,,Clear,70,2013-05-28 10:15:00
6:35 AM,51.8,51.8,100,30.23,10.0,East,4.6,-,N/A,,Clear,80,2013-05-28 10:35:00
6:55 AM,53.6,51.8,94,30.23,10.0,ENE,6.9,-,N/A,,Clear,70,2013-05-28 10:55:00
7:15 AM,57.2,48.2,72,30.23,10.0,East,8.1,-,N/A,,Clear,80,2013-05-28 11:15:00
7:35 AM,60.8,46.4,59,30.24,10.0,East,5.8,-,N/A,,Clear,90,2013-05-28 11:35:00
7:55 AM,62.6,42.8,48,30.25,10.0,East,8.1,-,N/A,,Clear,90,2013-05-28 11:55:00
8:15 AM,62.6,42.8,48,30.25,10.0,East,8.1,-,N/A,,Clear,100,2013-05-28 12:15:00
8:35 AM,64.4,39.2,40,30.25,10.0,SE,11.5,-,N/A,,Clear,130,2013-05-28 12:35:00
8:55 AM,64.4,39.2,40,30.25,10.0,SE,6.9,-,N/A,,Clear,130,2013-05-28 12:55:00
9:15 AM,64.4,39.2,40,30.25,10.0,SE,8.1,-,N/A,,Clear,130,2013-05-28 13:15:00
9:35 AM,66.2,39.2,37,30.25,10.0,ESE,6.9,-,N/A,,Clear,120,2013-05-28 13:35:00
9:55 AM,66.2,39.2,37,30.26,10.0,SSE,8.1,-,N/A,,Clear,150,2013-05-28 13:55:00
10:15 AM,66.2,39.2,37,30.26,10.0,SE,10.4,-,N/A,,Clear,130,2013-05-28 14:15:00
10:35 AM,66.2,41.0,40,30.26,10.0,SE,8.1,-,N/A,,Clear,130,2013-05-28 14:35:00
11:15 AM,66.2,41.0,40,30.27,10.0,SE,8.1,-,N/A,,Clear,140,2013-05-28 15:15:00
11:35 AM,66.2,41.0,40,30.26,10.0,SE,9.2,-,N/A,,Clear,140,2013-05-28 15:35:00
11:55 AM,68.0,39.2,35,30.26,10.0,SSE,6.9,-,N/A,,Clear,150,2013-05-28 15:55:00
12:15 PM,69.8,41.0,35,30.26,10.0,SSE,4.6,-,N/A,,Clear,160,2013-05-28 16:15:00
12:35 PM,69.8,41.0,35,30.26,10.0,SSE,9.2,-,N/A,,Clear,160,2013-05-28 16:35:00
12:55 PM,69.8,41.0,35,30.25,10.0,South,10.4,-,N/A,,Clear,180,2013-05-28 16:55:00
1:15 PM,69.8,42.8,38,30.25,10.0,SSE,10.4,-,N/A,,Clear,150,2013-05-28 17:15:00
1:35 PM,69.8,46.4,43,30.25,10.0,SE,9.2,-,N/A,,Clear,140,2013-05-28 17:35:00
1:55 PM,68.0,46.4,46,30.25,10.0,South,8.1,-,N/A,,Clear,180,2013-05-28 17:55:00
2:15 PM,69.8,48.2,46,30.24,10.0,SSE,8.1,-,N/A,,Clear,150,2013-05-28 18:15:00
2:35 PM,69.8,48.2,46,30.24,10.0,SSE,8.1,-,N/A,,Clear,150,2013-05-28 18:35:00
2:55 PM,68.0,48.2,49,30.23,10.0,SE,10.4,-,N/A,,Clear,140,2013-05-28 18:55:00
3:15 PM,68.0,48.2,49,30.23,10.0,SSE,11.5,-,N/A,,Clear,160,2013-05-28 19:15:00
3:35 PM,68.0,48.2,49,30.22,10.0,South,9.2,16.1,N/A,,Clear,170,2013-05-28 19:35:00
3:55 PM,68.0,50.0,52,30.22,10.0,SSE,10.4,-,N/A,,Clear,150,2013-05-28 19:55:00
4:15 PM,66.2,51.8,60,30.22,10.0,SSE,9.2,-,N/A,,Clear,150,2013-05-28 20:15:00
4:35 PM,66.2,51.8,60,30.22,10.0,South,8.1,-,N/A,,Clear,170,2013-05-28 20:35:00
4:55 PM,66.2,51.8,60,30.21,10.0,South,9.2,-,N/A,,Clear,170,2013-05-28 20:55:00
5:15 PM,66.2,51.8,60,30.21,10.0,South,9.2,-,N/A,,Clear,170,2013-05-28 21:15:00
5:35 PM,64.4,51.8,64,30.21,10.0,South,10.4,-,N/A,,Clear,190,2013-05-28 21:35:00
5:55 PM,64.4,50.0,59,30.21,10.0,South,10.4,-,N/A,,Clear,190,2013-05-28 21:55:00
6:15 PM,62.6,51.8,68,30.21,10.0,South,10.4,-,N/A,,Clear,190,2013-05-28 22:15:00
6:35 PM,60.8,51.8,72,30.21,10.0,SSW,10.4,-,N/A,,Clear,200,2013-05-28 22:35:00
6:55 PM,60.8,51.8,72,30.21,10.0,South,9.2,-,N/A,,Clear,190,2013-05-28 22:55:00
7:15 PM,60.8,50.0,68,30.21,10.0,South,9.2,-,N/A,,Clear,190,2013-05-28 23:15:00
7:35 PM,59.0,50.0,72,30.21,10.0,South,8.1,-,N/A,,Clear,190,2013-05-28 23:35:00
7:55 PM,57.2,48.2,72,30.21,10.0,South,6.9,-,N/A,,Clear,190,2013-05-28 23:55:00
8:15 PM,57.2,48.2,72,30.21,10.0,South,6.9,-,N/A,,Clear,190,2013-05-29 00:15:00
8:35 PM,57.2,48.2,72,30.22,10.0,SSW,9.2,-,N/A,,Clear,200,2013-05-29 00:35:00
8:55 PM,55.4,48.2,77,30.22,10.0,South,8.1,-,N/A,,Clear,190,2013-05-29 00:55:00
9:15 PM,55.4,48.2,77,30.22,10.0,South,8.1,-,N/A,,Clear,190,2013-05-29 01:15:00
9:35 PM,55.4,48.2,77,30.23,10.0,South,6.9,-,N/A,,Clear,190,2013-05-29 01:35:00
9:55 PM,53.6,48.2,82,30.23,10.0,South,8.1,-,N/A,,Clear,180,2013-05-29 01:55:00
10:15 PM,55.4,48.2,77,30.24,10.0,South,8.1,-,N/A,,Scattered Clouds,190,2013-05-29 02:15:00
10:35 PM,55.4,50.0,82,30.23,10.0,South,8.1,-,N/A,,Mostly Cloudy,190,2013-05-29 02:35:00
10:55 PM,55.4,51.8,88,30.24,10.0,South,8.1,-,N/A,,Mostly Cloudy,190,2013-05-29 02:55:00
11:15 PM,55.4,51.8,88,30.24,10.0,SSW,9.2,-,N/A,,Overcast,200,2013-05-29 03:15:00
11:35 PM,57.2,53.6,88,30.24,10.0,SSW,8.1,-,N/A,,Overcast,200,2013-05-29 03:35:00
11:55 PM,57.2,53.6,88,30.24,10.0,SSW,9.2,-,N/A,,Mostly Cloudy,200,2013-05-29 03:55:00